CW4498 Weather Reports


Display with metric or nautical units.
time (UTC)temp
F
wind
direction
speed
MPH
gust
MPH
rain 1hr
in
rain 24hr
in
rain mn
in
humidity
%
barometer
mb
20230208141529 23 259 0.0 0.0 0.00 0.00 0.00 49 1034.8
20230208140027 24 258 0.0 1.0 0.00 0.00 0.00 45 1034.7
20230208134524 23 258 1.0 2.0 0.00 0.00 0.00 50 1034.7
20230208133029 22 265 0.0 2.0 0.00 0.00 0.00 54 1034.7
20230208131524 22 313 0.0 2.0 0.00 0.00 0.00 53 1034.7
20230208130020 23 311 2.0 4.0 0.00 0.00 0.00 53 1034.8
20230208124518 23 309 1.0 3.0 0.00 0.00 0.00 55 1034.9
20230208123013 22 304 1.0 2.0 0.00 0.00 0.00 58 1035.1
20230208121510 21 304 1.0 2.0 0.00 0.00 0.00 61 1035.1
20230208120008 21 304 1.0 2.0 0.00 0.00 0.00 63 1035.2
20230208114507 21 304 1.0 2.0 0.00 0.00 0.00 64 1035.3
20230208113008 21 304 1.0 2.0 0.00 0.00 0.00 66 1035.3
20230208111507 20 306 1.0 2.0 0.00 0.00 0.00 64 1035.3
20230208110017 20 303 0.0 2.0 0.00 0.00 0.00 63 1035.3
20230208104505 20 306 1.0 1.0 0.00 0.00 0.00 62 1035.4
20230208103004 20 303 0.0 1.0 0.00 0.00 0.00 61 1035.4
20230208101512 20 302 0.0 1.0 0.00 0.00 0.00 62 1035.5
20230208100002 20 304 0.0 0.0 0.00 0.00 0.00 63 1035.8
20230208094611 21 304 1.0 2.0 0.00 0.00 0.00 63 1036.0
20230208093108 21 308 2.0 3.0 0.00 0.00 0.00 64 1036.0
20230208091617 21 313 2.0 5.0 0.00 0.00 0.00 65 1036.4
20230208090056 20 288 2.0 3.0 0.00 0.00 0.00 68 1036.6
20230208084554 20 286 0.0 1.0 0.00 0.00 0.00 67 1036.8
20230208083053 20 285 0.0 0.0 0.00 0.00 0.00 68 1037.0
20230208081552 21 287 0.0 0.0 0.00 0.00 0.00 68 1037.3
20230208080055 21 287 1.0 2.0 0.00 0.00 0.00 68 1037.3
20230208074551 21 287 0.0 2.0 0.00 0.00 0.00 71 1037.6
20230208073050 20 218 1.0 2.0 0.00 0.00 0.00 72 1037.9
20230208071555 19 212 0.0 0.0 0.00 0.00 0.00 74 1038.0
20230208070044 20 211 0.0 0.0 0.00 0.00 0.00 74 1038.4
20230208064549 20 212 0.0 0.0 0.00 0.00 0.00 73 1038.6
20230208063042 20 213 0.0 0.0 0.00 0.00 0.00 73 1038.7
20230208061547 20 213 0.0 0.0 0.00 0.00 0.00 72 1038.8
20230208060049 21 212 0.0 0.0 0.00 0.00 0.00 69 1039.1
20230208054547 21 211 0.0 0.0 0.00 0.00 0.00 70 1039.2
20230208053044 22 211 0.0 0.0 0.00 0.00 0.00 69 1039.2
20230208051542 22 211 0.0 0.0 0.00 0.00 0.00 68 1039.2
20230208050055 23 212 0.0 1.0 0.00 0.00 0.00 65 1039.4
20230208044542 24 211 0.0 1.0 0.00 0.00 0.00 64 1039.6
20230208043036 23 211 0.0 1.0 0.00 0.00 0.00 65 1039.6
20230208041551 24 211 0.0 0.0 0.00 0.00 0.00 63 1039.6
20230208040031 25 211 0.0 0.0 0.00 0.00 0.00 63 1039.6
20230208034537 25 264 0.0 1.0 0.00 0.00 0.00 62 1039.9
20230208033035 26 122 0.0 5.0 0.00 0.00 0.00 59 1039.9
20230208031532 26 124 0.0 2.0 0.00 0.00 0.00 55 1039.9
20230208030029 27 100 0.0 1.0 0.00 0.00 0.00 52 1039.9
20230208024554 27 263 0.0 4.0 0.00 0.00 0.00 50 1040.0
20230208023027 27 246 0.0 1.0 0.00 0.00 0.00 49 1040.0
20230208021526 28 246 0.0 2.0 0.00 0.00 0.00 47 1039.8
20230208020026 28 217 0.0 3.0 0.00 0.00 0.00 45 1039.7
20230208014525 29 160 0.0 2.0 0.00 0.00 0.00 44 1039.6
20230208013026 29 244 0.0 4.0 0.00 0.00 0.00 43 1039.5
20230208011532 29 153 0.0 3.0 0.00 0.00 0.00 42 1039.5
20230208010029 30 237 0.0 2.0 0.00 0.00 0.00 40 1039.4
20230208004524 31 207 0.0 3.0 0.00 0.00 0.00 39 1039.2
20230208003023 32 152 0.0 3.0 0.00 0.00 0.00 37 1039.0
20230208001523 33 115 2.0 6.0 0.00 0.00 0.00 36 1038.9
20230208000022 34 61 1.0 4.0 0.00 0.00 0.00 34 1038.9
20230207234521 36 122 3.0 7.0 0.00 0.00 0.00 33 1038.8
20230207233021 37 96 5.0 8.0 0.00 0.00 0.00 30 1038.7
20230207231520 38 109 3.0 7.0 0.00 0.00 0.00 30 1038.6
20230207230020 38 127 5.0 10.0 0.00 0.00 0.00 29 1038.3
20230207224519 38 114 6.0 12.0 0.00 0.00 0.00 29 1038.4
20230207223019 39 154 6.0 9.0 0.00 0.00 0.00 29 1038.5
20230207221519 39 111 3.0 8.0 0.00 0.00 0.00 29 1038.4
20230207220018 39 111 4.0 7.0 0.00 0.00 0.00 29 1038.6
20230207214517 39 126 2.0 7.0 0.00 0.00 0.00 30 1038.6
20230207213024 39 121 2.0 10.0 0.00 0.00 0.00 30 1038.6
20230207211516 39 109 2.0 11.0 0.00 0.00 0.00 30 1038.7
20230207210015 39 144 3.0 13.0 0.00 0.00 0.00 32 1038.9
20230207204529 38 101 2.0 8.0 0.00 0.00 0.00 33 1039.2
20230207203019 38 126 4.0 10.0 0.00 0.00 0.00 34 1039.1
20230207201511 38 118 4.0 9.0 0.00 0.00 0.00 35 1039.2
20230207200011 37 91 3.0 14.0 0.00 0.00 0.00 34 1039.3
20230207194510 37 91 3.0 8.0 0.00 0.00 0.00 32 1039.7
20230207193009 37 105 1.0 8.0 0.00 0.00 0.00 33 1039.8
20230207191508 36 130 3.0 9.0 0.00 0.00 0.00 32 1039.8
20230207190006 36 121 2.0 10.0 0.00 0.00 0.00 35 1039.9
20230207184511 35 115 2.0 11.0 0.00 0.00 0.00 37 1040.2
20230207183005 35 105 4.0 7.0 0.00 0.00 0.00 36 1040.3
20230207181503 35 80 2.0 9.0 0.00 0.00 0.00 35 1040.5
20230207180002 35 130 3.0 10.0 0.00 0.00 0.00 36 1040.4
20230207174501 35 113 5.0 9.0 0.00 0.00 0.00 34 1040.7
20230207173112 35 103 2.0 5.0 0.00 0.00 0.00 32 1040.7
20230207171610 34 117 2.0 7.0 0.00 0.00 0.00 35 1040.5
20230207170109 35 128 1.0 3.0 0.00 0.00 0.00 39 1040.3
20230207164558 34 84 0.0 2.0 0.00 0.00 0.00 41 1040.3
20230207163106 33 118 1.0 3.0 0.00 0.00 0.00 43 1040.2
20230207161551 32 80 0.0 1.0 0.00 0.00 0.00 46 1040.2
20230207160050 28 153 0.0 1.0 0.00 0.00 0.00 50 1040.1
20230207154554 28 150 0.0 1.0 0.00 0.00 0.00 50 1040.1
20230207153054 31 149 0.0 1.0 0.00 0.00 0.00 48 1040.0
20230207151545 28 232 0.0 0.0 0.00 0.00 0.00 56 1040.1
20230207150051 25 232 0.0 0.0 0.00 0.00 0.00 64 1039.9
20230207144544 22 232 0.0 0.0 0.00 0.00 0.00 66 1039.6
20230207143036 21 232 0.0 0.0 0.00 0.00 0.00 67 1039.4